Simultaneous Nadir Overpasses (SNOs) Predictions

Prediction of SNOs between METOP-C and LANDSAT-8 Satellite Orbit:

Table of predicted SNOs for the next 14.0 days since TLE Epoch: 6/4/2022
Index Date (METOP-C) Time (METOP-C) Lat,Lon (METOP-C) SZA (METOP-C ) Date (LANDSAT-8) Time (LANDSAT-8) Lat,Lon (LANDSAT-8) SZA (LANDSAT-8 ) Distance(km) Time Diff (sec)
1 06/05/2022 12:39:37 -81.16,-149.48 119.17 06/05/2022 12:40:27 -81.16,-149.42 119.14 1.14 50
2 06/05/2022 13:30:16 81.18, 18.37 60.90 06/05/2022 13:29:53 81.17, 18.34 60.88 0.77 23
3 06/08/2022 08:14:01 -81.15, -83.32 119.49 06/08/2022 08:14:45 -81.15, -83.15 119.45 2.85 44
4 06/08/2022 09:04:39 81.18, 84.84 60.62 06/08/2022 09:04:10 81.18, 84.95 60.62 1.99 29
5 06/11/2022 03:48:22 -81.17, -16.44 119.67 06/11/2022 03:49:01 -81.16, -16.59 119.67 2.59 39
6 06/11/2022 04:39:00 81.19, 151.64 60.43 06/11/2022 04:38:26 81.19, 151.49 60.40 2.69 34
7 06/13/2022 23:22:45 -81.17, 50.02 119.85 06/13/2022 23:23:18 -81.17, 49.90 119.85 2.03 33
8 06/14/2022 00:13:23 81.19,-141.97 60.25 06/14/2022 00:12:43 81.19,-142.05 60.22 1.42 40
9 06/16/2022 18:57:08 -81.17, 116.44 119.97 06/16/2022 18:57:35 -81.16, 116.32 119.98 2.08 27



Historial Predications of SNOs between METOP-C and LANDSAT-8
